FW0051 Weather Reports


Display with metric or nautical units.
time (UTC)temp
F
wind
direction
speed
MPH
gust
MPH
rain 1hr
in
rain 24hr
in
rain mn
in
humidity
%
barometer
mb
20260906060019 60 117 3.0 6.0 0.00 0.00 0.00 68 1030.1
20260906054517 60 104 0.0 1.0 0.00 0.00 0.00 63 1029.8
20260906053017 59 103 2.0 4.0 0.00 0.00 0.00 68 1029.9
20260906051518 60 25 3.0 4.0 0.00 0.00 0.00 67 1029.8
20260906050017 60 1 2.0 4.0 0.00 0.00 0.00 63 1029.7
20260906044517 60 1 3.0 5.0 0.00 0.00 0.00 58 1029.6
20260906043016 60 331 3.0 5.0 0.00 0.00 0.00 62 1029.5
20260906041516 60 278 3.0 7.0 0.00 0.00 0.00 66 1029.5
20260906040017 60 1 5.0 9.0 0.00 0.00 0.00 58 1029.4
20260906034516 61 1 9.0 11.0 0.00 0.00 0.00 55 1029.1
20260906031516 61 1 8.0 11.0 0.00 0.00 0.00 58 1029.1
20260906030017 61 358 5.0 9.0 0.00 0.00 0.00 58 1029.2
20260906024515 61 1 8.0 11.0 0.00 0.00 0.00 57 1029.1
20260906023016 60 349 4.0 8.0 0.00 0.00 0.00 66 1029.4
20260906021516 61 1 7.0 10.0 0.00 0.00 0.00 58 1029.2
20260906020016 61 358 5.0 9.0 0.00 0.00 0.00 61 1029.0
20260906014515 61 1 6.0 10.0 0.00 0.00 0.00 58 1029.1
20260906013015 61 2 8.0 11.0 0.00 0.00 0.00 58 1029.0
20260906011515 61 1 9.0 12.0 0.00 0.00 0.00 62 1029.0
20260906010016 61 2 8.0 12.0 0.00 0.00 0.00 67 1029.1
20260906003014 61 1 8.0 11.0 0.00 0.00 0.00 65 1029.2
20260906001515 62 1 9.0 12.0 0.00 0.00 0.00 61 1029.1
20260906000015 62 1 9.0 11.0 0.00 0.00 0.00 65 1029.1
20260905234515 61 2 9.0 11.0 0.00 0.00 0.00 67 1029.2
20260905233014 62 357 6.0 9.0 0.00 0.00 0.00 65 1029.2
20260905231515 62 2 6.0 9.0 0.00 0.00 0.00 63 1029.1
20260905230015 61 3 6.0 9.0 0.00 0.00 0.00 69 1029.0
20260905224515 61 336 7.0 10.0 0.00 0.00 0.00 74 1029.0
20260905223014 61 334 6.0 10.0 0.00 0.00 0.00 74 1029.1
20260905221514 61 329 7.0 11.0 0.00 0.00 0.00 78 1028.9
20260905214514 62 359 6.0 10.0 0.00 0.00 0.00 78 1028.8
20260905213013 62 354 6.0 10.0 0.00 0.00 0.00 76 1028.8
20260905211514 63 342 6.0 9.0 0.00 0.00 0.00 74 1028.7
20260905210014 64 332 5.0 8.0 0.00 0.00 0.00 64 1028.6
20260905204513 64 1 9.0 13.0 0.00 0.00 0.00 60 1028.6
20260905203013 64 6 11.0 13.0 0.00 0.00 0.00 60 1028.5
20260905201513 64 7 11.0 15.0 0.00 0.00 0.00 61 1028.5
20260905194513 64 7 12.0 14.0 0.00 0.00 0.00 66 1028.2
20260905193015 64 2 12.0 14.0 0.00 0.00 0.00 68 1028.3
20260905190016 63 6 10.0 12.0 0.00 0.00 0.00 80 1028.2
20260905183015 63 99 2.0 4.0 0.00 0.00 0.00 81 1027.9
20260905181515 62 100 2.0 3.0 0.00 0.00 0.00 83 1027.8
20260905180016 62 101 4.0 6.0 0.00 0.00 0.00 86 1027.6
20260905173015 64 120 4.0 7.0 0.00 0.00 0.00 80 1027.3
20260905171515 64 128 5.0 8.0 0.00 0.00 0.00 79 1027.2
20260905170015 64 131 5.0 7.0 0.00 0.00 0.00 78 1027.2
20260905164514 65 149 6.0 9.0 0.00 0.00 0.00 78 1027.1
20260905163015 65 150 7.0 11.0 0.00 0.00 0.00 75 1027.1
20260905161515 66 143 9.0 11.0 0.00 0.00 0.00 72 1026.9
20260905160015 68 178 6.0 10.0 0.00 0.00 0.00 68 1026.9
20260905154515 67 196 6.0 10.0 0.00 0.00 0.00 71 1026.8
20260905151515 67 185 8.0 11.0 0.00 0.00 0.00 69 1026.7
20260905150016 67 198 7.0 13.0 0.00 0.00 0.00 69 1026.7
20260905144514 67 182 9.0 16.0 0.00 0.00 0.00 72 1026.5
20260905141515 68 187 7.0 14.0 0.00 0.00 0.00 74 1026.4
20260905140015 67 177 12.0 19.0 0.00 0.00 0.00 76 1026.4
20260905134514 67 166 11.0 19.0 0.00 0.00 0.00 77 1026.8
20260905130017 66 140 11.0 16.0 0.00 0.00 0.00 79 1026.8
20260905124514 66 141 13.0 19.0 0.00 0.00 0.00 79 1027.0
20260905121513 66 143 9.0 16.0 0.00 0.00 0.00 80 1027.1
20260905120018 66 144 12.0 19.0 0.00 0.00 0.00 81 1027.3
20260905114514 66 131 7.0 13.0 0.00 0.00 0.00 80 1027.2
20260905110014 66 144 8.0 13.0 0.00 0.00 0.00 82 1027.0
20260905104513 65 149 9.0 17.0 0.00 0.00 0.00 84 1027.0
20260905103014 66 169 7.0 15.0 0.00 0.00 0.00 79 1026.8
20260905100014 66 126 4.0 10.0 0.00 0.00 0.00 76 1026.7
20260905094513 67 72 2.0 7.0 0.00 0.00 0.00 70 1026.7
20260905093013 67 50 6.0 13.0 0.00 0.00 0.00 70 1026.7
20260905091513 65 253 1.0 3.0 0.00 0.00 0.00 65 1026.3
20260905090014 65 262 3.0 6.0 0.00 0.00 0.00 66 1026.4
20260905084513 64 253 3.0 7.0 0.00 0.00 0.00 69 1026.1
20260905083013 64 268 6.0 12.0 0.00 0.00 0.00 72 1026.1
20260905081513 64 248 5.0 9.0 0.00 0.00 0.00 71 1025.8
20260905080013 64 263 4.0 8.0 0.00 0.00 0.00 72 1025.7
20260905074513 64 259 3.0 6.0 0.00 0.00 0.00 70 1025.5
20260905073018 63 251 5.0 8.0 0.00 0.00 0.00 71 1025.6
20260905071518 61 316 5.0 12.0 0.00 0.00 0.00 78 1025.3
20260905070018 61 339 5.0 9.0 0.00 0.00 0.00 80 1025.3
20260905064518 60 317 3.0 7.0 0.00 0.00 0.00 81 1025.3
20260905063018 60 307 6.0 9.0 0.00 0.00 0.00 81 1025.3
20260905061517 60 262 2.0 6.0 0.00 0.00 0.00 79 1025.3